Temp
87 84 75 76 76 76 75 75 75 75 76 76 76 76 76 76 77 77 77 77 78 78 78 78 78 78 78 78 77 77 76 76 76 76 77 78 78 78 77 77 77 83 77
85 78 72 74 75 75 75 75 75 75 76 76 76 76 76 76 76 77 77 77 78 78 78 78 78 78 78 77 77 76 76 76 76 76 77 77 79 78 78 77 77 79 77
79 80 79 72 73 74 74 74 75 76 76 76 76 76 76 77 77 77 76 76 78 78 79 79 78 78 78 77 76 76 76 75 75 75 76 85 83 79 78 77 76 77 77
76 78 78 72 72 73 73 74 74 74 74 74 75 75 75 74 74 73 73 74 75 76 76 76 76 76 76 75 75 75 75 75 74 74 83 89 92 78 78 77 77 77 77
76 76 73 71 72 72 72 72 73 73 73 73 73 73 73 73 72 72 72 72 72 73 73 72 72 71 71 71 72 73 73 73 73 75 87 90 90 83 79 78 78 77 76
75 74 71 70 71 71 71 71 71 71 71 71 72 72 72 71 71 70 70 70 70 70 70 69 69 69 68 69 69 70 70 71 71 85 90 89 88 81 78 77 75 76 76
71 69 70 69 70 71 71 70 70 70 70 70 70 70 70 69 69 68 67 67 67 67 67 67 67 67 67 67 67 67 67 68 76 84 88 90 89 78 77 76 76 75 75
68 66 68 69 69 68 68 68 67 67 68 68 68 68 67 67 67 66 66 66 65 65 65 65 65 65 65 65 65 65 65 65 77 83 87 89 81 78 77 76 75 74 74
67 66 65 65 67 66 65 65 65 65 65 65 65 65 65 65 65 65 63 64 63 63 63 63 63 63 63 64 65 64 64 65 73 81 85 85 76 76 76 75 75 74 74
67 69 67 67 68 67 64 63 63 63 63 63 63 64 64 66 66 64 66 61 62 62 62 62 62 62 62 63 64 65 65 65 76 83 82 84 72 74 75 75 75 74 74
65 65 64 64 67 66 67 65 64 64 65 65 65 65 69 74 73 74 61 61 62 62 62 63 63 63 63 64 65 66 65 79 84 87 87 72 70 71 74 74 74 74 73
63 64 65 65 68 73 76 72 72 72 71 70 70 71 72 71 69 71 67 63 65 63 66 65 66 66 69 76 77 71 80 79 79 81 83 70 69 70 71 71 70 72 73
67 65 66 67 72 75 75 77 77 75 73 71 67 68 69 72 70 72 72 72 71 69 71 71 72 72 69 70 71 72 73 73 78 80 79 67 68 69 70 69 69 69 69
68 67 68 70 71 72 76 76 74 73 72 71 68 66 68 71 68 68 69 70 69 69 67 69 70 68 68 69 69 69 69 71 74 76 76 68 66 67 69 69 68 69 70
70 69 69 72 70 70 71 71 70 69 69 68 68 65 66 67 66 67 67 68 68 68 67 67 68 67 68 69 69 68 69 69 70 72 73 68 67 67 67 67 67 68 69
71 70 70 70 69 69 68 67 67 67 68 67 65 63 63 65 64 66 66 66 66 66 66 66 65 66 67 68 68 68 67 68 69 69 72 72 66 65 66 67 67 67 67
71 69 67 66 67 67 66 67 67 67 67 66 65 62 62 62 63 65 64 64 63 65 65 65 65 66 67 68 67 67 68 68 69 69 69 70 71 66 64 65 65 66 66
72 69 69 69 66 66 65 67 67 66 66 66 65 63 60 60 62 63 63 61 62 64 64 63 63 63 64 65 63 65 67 67 67 68 70 69 70 71 69 65 65 65 65
72 68 66 65 64 64 63 64 63 63 65 65 64 62 60 59 59 62 61 60 62 63 62 61 61 61 62 62 62 65 65 67 68 69 67 64 64 65 65 64 63 63 64
70 68 66 66 63 63 65 65 65 64 64 64 62 60 58 59 58 60 61 58 61 61 60 58 57 60 61 59 61 63 65 67 64 64 66 63 64 64 63 62 63 65 60
68 67 66 63 62 66 66 66 65 63 62 62 60 58 57 56 56 56 58 58 58 58 56 56 56 56 59 58 58 58 66 64 61 63 64 62 62 63 63 62 60 56 57
66 66 65 65 65 67 68 67 65 63 61 61 60 57 56 55 54 56 55 56 55 57 55 54 54 54 57 56 51 55 55 62 55 62 62 59 57 52 51 52 51 51 51
65 64 65 65 65 65 63 63 61 60 60 60 60 59 55 54 54 53 54 54 54 55 54 53 53 52 51 54 53 49 47 46 44 56 58 55 53 48 47 47 48 47 48
64 64 64 63 62 62 62 62 61 64 60 58 58 56 56 53 53 53 53 53 53 54 52 53 53 52 50 48 51 51 49 46 39 39 51 54 54 49 44 43 43 45 45
63 62 61 61 60 59 59 58 58 57 56 57 56 53 53 53 52 52 52 52 51 52 51 51 51 50 50 47 46 45 46 48 44 38 38 44 51 50 42 41 40 40 42
63 60 59 58 57 57 57 56 56 54 54 54 54 54 54 54 53 51 52 51 51 50 50 51 51 49 48 47 46 44 41 38 37 35 34 37 40 47 41 39 38 38 39
MSLP
1009.54 1010.83 1011.69 1011.68 1011.83 1012.05 1012.36 1012.61 1012.86 1013.00 1013.12 1013.12 1013.25 1013.46 1013.52 1013.59 1013.75 1013.89 1014.04 1014.20 1014.32 1014.40 1014.41 1014.53 1014.60 1014.58 1014.55 1014.58 1014.61 1014.57 1014.51 1014.37 1014.22 1014.09 1013.86 1013.63 1013.65 1013.60 1013.52 1013.55 1013.51 1013.09 1013.67
1010.34 1011.47 1012.13 1012.12 1012.16 1012.45 1012.66 1012.76 1013.02 1013.26 1013.40 1013.53 1013.62 1013.91 1014.01 1014.10 1014.14 1014.14 1014.24 1014.40 1014.50 1014.57 1014.63 1014.73 1014.78 1014.78 1014.79 1014.79 1014.72 1014.70 1014.59 1014.57 1014.38 1014.17 1013.93 1013.67 1013.32 1013.45 1013.63 1013.68 1013.70 1013.57 1013.79
1011.17 1011.68 1012.24 1012.67 1012.65 1012.82 1012.95 1013.06 1013.09 1013.25 1013.52 1013.79 1013.98 1014.13 1014.35 1014.39 1014.50 1014.52 1014.46 1014.70 1014.74 1014.73 1014.76 1014.79 1014.84 1014.82 1014.76 1014.87 1014.81 1014.82 1014.71 1014.65 1014.59 1014.29 1013.96 1012.98 1012.46 1013.18 1013.50 1013.75 1013.79 1013.78 1013.91
1011.75 1012.08 1012.37 1012.98 1013.16 1013.36 1013.40 1013.48 1013.53 1013.58 1013.31 1013.77 1014.22 1014.52 1014.68 1014.85 1014.99 1014.96 1014.91 1015.01 1015.04 1015.02 1015.01 1015.03 1015.03 1015.06 1014.94 1014.94 1014.90 1014.94 1014.87 1014.75 1014.56 1014.45 1013.57 1012.32 1011.68 1012.60 1013.22 1013.74 1013.80 1013.86 1013.91
1012.14 1012.72 1013.33 1013.53 1013.75 1013.88 1014.03 1014.12 1014.22 1014.38 1014.41 1013.90 1014.43 1014.87 1015.07 1015.27 1015.34 1015.25 1015.28 1015.37 1015.41 1015.43 1015.39 1015.43 1015.41 1015.40 1015.41 1015.25 1015.00 1014.93 1014.93 1014.88 1014.74 1014.32 1013.03 1011.93 1012.17 1012.49 1012.99 1013.58 1013.72 1013.79 1013.83
1012.77 1013.31 1013.90 1014.06 1014.08 1014.28 1014.47 1014.64 1014.70 1014.78 1014.99 1014.63 1014.80 1015.24 1015.45 1015.60 1015.74 1015.77 1015.74 1015.84 1015.96 1015.91 1015.96 1015.89 1015.90 1015.74 1015.60 1015.40 1015.14 1014.97 1014.93 1014.90 1014.73 1013.49 1012.28 1011.67 1012.15 1012.78 1013.27 1013.54 1013.76 1013.78 1013.81
1013.41 1013.99 1014.37 1014.65 1014.67 1014.82 1015.03 1015.22 1015.29 1015.43 1015.58 1015.49 1015.39 1015.93 1016.08 1016.15 1016.30 1016.37 1016.36 1016.42 1016.40 1016.24 1016.27 1016.17 1016.15 1016.05 1015.82 1015.72 1015.51 1015.16 1014.91 1014.84 1014.51 1013.41 1012.49 1011.57 1011.66 1012.51 1013.05 1013.46 1013.73 1013.76 1013.76
1014.18 1014.68 1014.85 1015.20 1015.39 1015.62 1015.65 1015.90 1016.07 1016.05 1016.07 1015.98 1016.12 1016.49 1016.57 1016.69 1016.76 1016.72 1016.64 1016.75 1016.69 1016.52 1016.52 1016.48 1016.53 1016.34 1016.18 1015.88 1015.52 1015.45 1015.12 1014.79 1014.08 1013.14 1012.25 1011.60 1011.59 1012.18 1012.71 1013.29 1013.58 1013.71 1013.68
1014.47 1015.06 1015.53 1015.85 1016.11 1016.34 1016.64 1016.65 1016.95 1016.63 1016.64 1016.68 1016.95 1016.99 1016.84 1017.03 1016.92 1016.85 1016.88 1016.94 1016.84 1016.85 1016.81 1016.80 1016.75 1016.58 1016.26 1015.98 1015.87 1015.44 1015.31 1015.10 1014.30 1013.12 1012.35 1011.77 1012.51 1012.48 1012.59 1012.98 1013.31 1013.48 1013.51
1014.93 1015.10 1015.62 1015.83 1016.05 1016.62 1017.15 1017.35 1017.58 1017.50 1017.31 1016.98 1017.08 1017.02 1017.15 1016.98 1017.04 1017.21 1016.91 1017.31 1017.11 1017.00 1016.83 1016.94 1016.84 1016.43 1016.03 1015.71 1015.43 1015.26 1014.98 1014.70 1013.89 1012.62 1012.09 1012.07 1012.36 1012.57 1012.92 1013.05 1013.17 1013.22 1013.28
1015.17 1015.74 1016.05 1016.15 1016.28 1016.53 1016.95 1017.63 1017.66 1017.45 1017.18 1016.93 1017.08 1017.20 1016.87 1016.64 1016.81 1016.42 1017.47 1017.31 1017.10 1017.05 1016.95 1016.76 1016.48 1016.11 1015.65 1014.96 1014.71 1014.62 1014.28 1013.31 1012.61 1011.81 1011.73 1012.01 1012.40 1012.77 1012.81 1012.73 1012.83 1012.95 1012.99
1014.88 1015.67 1016.04 1016.02 1015.90 1015.70 1015.89 1016.46 1016.69 1016.76 1017.00 1017.04 1017.19 1017.15 1016.99 1017.03 1017.19 1016.80 1016.85 1017.05 1016.84 1017.03 1016.59 1016.42 1016.16 1015.68 1015.04 1014.67 1014.16 1014.08 1013.32 1013.12 1013.07 1012.68 1012.15 1012.40 1012.50 1012.68 1013.06 1012.98 1012.90 1012.69 1012.58
1014.49 1015.37 1015.91 1015.88 1015.67 1015.45 1015.64 1015.75 1015.96 1016.40 1016.68 1017.16 1017.61 1017.47 1017.23 1016.92 1017.05 1016.64 1016.58 1016.47 1016.56 1016.62 1016.43 1016.09 1015.72 1015.57 1015.76 1015.50 1014.97 1014.69 1014.33 1014.00 1013.23 1012.59 1012.12 1012.73 1012.86 1013.20 1013.20 1013.22 1013.11 1012.72 1012.54
1014.05 1015.00 1015.49 1015.61 1015.90 1015.98 1015.71 1015.84 1016.36 1016.55 1016.89 1017.21 1017.72 1017.92 1017.37 1016.91 1017.08 1017.03 1017.05 1016.86 1016.77 1016.79 1016.81 1016.49 1016.08 1016.10 1015.83 1015.58 1015.28 1014.99 1014.75 1014.36 1013.63 1013.19 1012.65 1012.67 1012.88 1013.07 1013.26 1013.38 1013.17 1012.87 1012.49
1013.71 1014.66 1014.98 1015.39 1015.81 1016.24 1016.23 1016.62 1016.88 1017.06 1017.44 1017.71 1017.87 1018.38 1017.95 1017.45 1017.50 1017.49 1017.51 1017.23 1017.18 1017.11 1017.09 1016.72 1016.43 1016.26 1015.84 1015.53 1015.28 1015.07 1014.73 1014.48 1014.06 1013.55 1013.07 1012.88 1013.00 1012.96 1013.22 1013.29 1013.23 1012.94 1012.57
1013.60 1014.46 1015.12 1015.45 1015.81 1016.18 1016.50 1016.79 1017.06 1017.41 1017.74 1018.12 1018.64 1018.86 1018.65 1018.14 1018.10 1017.74 1017.68 1017.57 1017.51 1017.47 1017.36 1017.06 1016.87 1016.44 1016.03 1015.64 1015.20 1014.86 1014.75 1014.39 1013.96 1013.55 1013.24 1012.90 1012.86 1012.91 1012.93 1012.94 1012.95 1012.79 1012.67
1013.69 1014.55 1015.14 1015.74 1016.17 1016.51 1016.83 1016.99 1017.30 1017.64 1017.88 1018.20 1018.66 1019.15 1019.20 1018.90 1018.52 1018.06 1018.04 1018.06 1018.15 1017.85 1017.64 1017.28 1016.87 1016.59 1016.10 1015.43 1015.23 1014.90 1014.50 1014.15 1013.89 1013.59 1013.41 1013.05 1012.60 1012.53 1012.40 1012.49 1012.60 1012.58 1012.44
1013.71 1014.51 1015.18 1015.74 1016.20 1016.46 1016.91 1016.97 1017.28 1017.81 1017.93 1018.16 1018.52 1019.03 1019.40 1019.31 1019.06 1018.62 1018.60 1018.86 1018.73 1018.16 1017.97 1017.72 1017.40 1016.91 1016.28 1015.69 1015.46 1015.15 1014.51 1014.15 1013.88 1013.56 1013.20 1013.20 1012.88 1012.57 1012.24 1012.19 1012.42 1012.46 1012.11
1013.61 1014.64 1015.38 1015.97 1016.48 1016.89 1017.29 1017.61 1017.87 1018.02 1018.05 1018.32 1018.67 1019.17 1019.43 1019.59 1019.67 1019.15 1019.31 1019.37 1019.00 1018.62 1018.46 1018.28 1017.89 1017.53 1016.64 1016.30 1015.78 1014.96 1014.57 1014.11 1013.72 1013.33 1013.73 1014.20 1014.11 1013.54 1013.49 1012.93 1012.64 1012.30 1011.98
1014.14 1014.83 1015.46 1015.99 1016.65 1017.08 1017.32 1017.38 1017.64 1018.03 1018.40 1018.89 1019.38 1019.79 1019.98 1020.17 1020.22 1019.70 1019.46 1019.80 1019.33 1019.03 1018.98 1019.00 1018.59 1017.84 1017.15 1016.90 1016.03 1015.00 1014.51 1014.01 1014.51 1014.29 1013.96 1014.40 1014.35 1013.99 1013.79 1013.64 1013.12 1012.60 1012.66
1013.97 1014.63 1015.30 1015.99 1016.58 1016.58 1016.66 1016.79 1017.27 1017.79 1018.56 1019.07 1019.70 1020.20 1020.40 1020.72 1020.73 1020.53 1020.08 1020.04 1019.80 1019.57 1019.70 1019.45 1018.92 1018.17 1017.46 1017.53 1016.38 1015.52 1013.95 1014.33 1014.88 1014.45 1014.44 1014.65 1014.54 1014.22 1013.92 1013.77 1014.18 1014.08 1013.38
1014.04 1014.47 1015.12 1015.76 1016.22 1016.26 1016.45 1016.88 1017.34 1018.11 1018.78 1019.26 1019.81 1020.45 1020.84 1021.00 1021.13 1020.82 1020.93 1020.56 1020.53 1019.95 1020.22 1019.91 1019.56 1018.83 1018.08 1018.07 1017.77 1016.17 1014.93 1014.11 1015.46 1014.78 1015.11 1015.44 1015.59 1016.25 1016.21 1015.84 1015.69 1015.37 1014.89
1014.30 1014.79 1015.11 1015.69 1016.22 1016.50 1017.10 1017.63 1018.07 1018.53 1018.83 1019.04 1019.62 1020.14 1021.13 1021.27 1021.35 1021.39 1021.19 1021.02 1020.71 1020.51 1020.50 1020.33 1020.11 1019.65 1018.98 1018.76 1019.00 1019.01 1017.57 1017.33 1017.54 1016.03 1015.59 1016.35 1016.45 1017.09 1017.54 1017.26 1017.00 1016.67 1016.13
1014.21 1014.98 1015.50 1016.17 1016.74 1017.23 1017.39 1017.48 1017.63 1017.66 1018.26 1019.30 1019.88 1020.72 1021.01 1021.52 1021.72 1021.74 1021.45 1021.41 1021.12 1020.97 1021.10 1020.81 1020.69 1020.46 1020.38 1019.87 1019.83 1020.02 1019.94 1019.88 1019.22 1018.27 1017.35 1016.78 1017.08 1017.89 1018.49 1018.47 1018.17 1017.61 1017.18
1014.52 1015.29 1015.92 1016.41 1017.01 1017.69 1018.00 1018.24 1018.31 1018.58 1019.28 1019.72 1020.37 1020.92 1021.28 1021.75 1022.11 1022.20 1021.95 1021.76 1021.69 1021.71 1021.62 1021.63 1021.60 1021.34 1021.07 1021.03 1020.74 1020.86 1020.68 1020.04 1020.43 1020.21 1018.68 1018.28 1017.77 1018.19 1019.17 1019.25 1019.04 1018.69 1018.28
1014.74 1015.52 1016.33 1016.77 1017.43 1018.13 1018.54 1018.83 1018.89 1019.22 1019.50 1020.02 1020.38 1020.90 1021.31 1021.60 1021.86 1022.37 1022.22 1022.26 1022.21 1022.33 1022.15 1022.15 1022.02 1021.91 1021.55 1021.38 1021.58 1021.77 1021.86 1021.65 1021.57 1021.41 1020.73 1020.02 1019.26 1018.31 1019.29 1019.57 1019.45 1019.47 1019.14
Wind_Speed
13 15 9 8 8 10 9 9 8 9 9 11 12 11 10 10 9 9 8 6 5 4 4 4 3 3 4 5 6 5 6 6 6 7 5 4 3 1 1 0 4 2 8
13 12 10 10 12 9 8 10 9 9 10 10 11 10 9 9 9 9 8 6 4 3 3 2 2 3 4 4 5 6 5 6 7 7 8 11 8 5 2 2 4 7 6
14 10 11 9 13 13 14 14 12 12 11 10 8 8 8 8 8 8 10 9 5 4 5 6 6 6 7 6 6 7 7 8 9 9 11 12 10 10 4 2 2 1 3
14 8 10 10 13 13 13 13 13 13 16 15 15 15 14 13 13 14 14 13 12 12 12 11 11 10 9 8 7 7 7 8 8 11 11 13 7 14 8 5 4 4 5
11 12 11 13 13 15 15 14 14 13 14 17 15 15 14 14 14 15 15 13 12 11 12 12 11 11 11 11 10 9 9 9 10 12 13 10 6 10 10 5 9 9 8
11 12 14 14 15 17 15 14 14 15 14 16 16 14 14 14 15 15 15 14 12 12 11 11 11 11 11 9 8 8 9 10 12 14 15 2 4 5 5 3 6 7 7
14 12 14 13 15 15 15 14 15 14 14 14 16 13 13 13 13 13 13 13 12 12 11 11 12 11 11 11 11 9 8 10 12 13 15 12 8 12 6 3 7 7 7
14 12 11 16 15 15 15 15 14 13 14 15 14 13 13 12 12 13 13 12 12 12 11 11 11 11 12 12 10 11 10 9 10 14 15 12 6 11 7 4 7 9 8
12 10 9 9 13 15 14 14 12 14 14 14 13 12 12 11 11 11 12 11 11 11 11 12 11 12 12 12 12 10 12 14 10 10 14 8 8 1 4 5 7 9 10
9 9 10 6 10 9 9 12 12 13 13 14 11 8 6 9 8 9 7 11 11 11 10 11 10 11 12 12 11 9 11 16 15 14 8 9 10 5 7 7 9 10 10
9 8 7 6 5 8 10 8 10 9 9 9 9 4 4 5 6 4 8 8 9 12 8 10 11 12 13 17 15 10 12 8 12 9 7 9 6 4 11 11 11 13 12
12 9 7 6 7 8 7 7 6 6 7 7 7 6 4 4 4 5 4 2 3 8 5 8 7 13 9 9 7 9 7 11 9 10 9 7 7 4 10 14 15 13 14
12 9 9 6 6 6 5 4 3 3 3 5 7 6 4 3 5 5 4 5 6 8 7 9 8 8 10 8 8 9 10 11 8 9 7 6 5 8 12 15 18 17 17
12 11 11 9 6 4 4 4 4 4 4 4 6 7 4 3 5 5 5 6 6 6 8 8 6 9 9 9 9 10 11 10 8 8 12 9 7 10 15 19 20 21 19
14 12 10 10 8 6 5 5 5 4 5 5 6 8 6 6 5 6 5 6 6 7 7 8 8 9 9 10 9 10 10 11 12 8 8 13 11 10 14 17 20 21 21
13 12 10 9 8 7 7 6 5 4 5 6 6 7 8 6 5 5 5 6 7 7 7 7 8 8 8 9 10 10 11 11 11 11 9 11 11 10 13 16 17 18 20
11 12 10 9 8 7 7 6 5 5 5 5 6 8 9 8 7 6 6 7 7 7 8 8 8 8 8 8 11 11 10 11 10 10 10 9 10 10 11 12 14 15 16
13 12 11 8 9 7 7 6 6 5 5 6 6 7 9 10 9 7 6 7 7 6 7 7 8 8 9 9 9 10 9 9 9 9 7 10 9 9 8 7 10 11 17
12 11 11 10 9 8 7 7 7 7 6 6 6 6 9 9 9 6 7 7 7 6 7 8 8 9 9 10 11 9 8 6 6 8 8 10 10 12 11 15 16 12 12
12 11 11 9 9 8 6 6 6 6 6 6 6 7 8 7 8 7 6 7 7 6 7 8 9 8 8 11 11 8 6 4 7 8 9 7 8 11 10 11 10 9 19
12 12 11 10 9 7 6 6 5 5 6 6 7 8 8 8 8 8 6 6 7 6 8 9 8 10 8 11 8 9 4 6 8 6 6 6 12 11 9 9 12 11 10
12 11 11 10 9 5 5 5 5 5 5 5 6 7 8 8 8 7 7 6 7 6 8 9 10 8 6 10 9 8 5 2 14 8 8 10 14 12 15 16 15 15 13
11 10 9 9 8 5 8 7 6 6 5 5 4 5 6 7 7 7 7 7 7 7 7 9 10 11 9 9 11 7 5 6 10 10 9 9 10 10 11 12 14 15 14
11 9 9 9 8 7 3 5 4 2 5 5 4 5 6 8 7 8 8 8 7 6 8 8 9 9 8 8 6 8 4 6 4 7 9 8 10 11 12 10 11 12 13
12 10 9 9 8 7 6 5 4 6 5 4 5 5 5 5 7 7 7 7 7 6 7 8 7 8 7 6 7 7 7 4 4 5 7 12 9 7 7 8 10 10 13
11 10 10 10 9 8 7 6 6 7 6 5 4 4 4 4 5 6 6 5 6 6 6 5 6 8 8 8 7 7 7 5 7 5 8 11 13 7 4 6 9 8 9
Wind_Direction
116 102 66 81 124 110 106 99 86 78 76 79 80 81 86 98 97 93 92 87 81 80 78 69 55 39 22 8 358 358 356 346 345 338 329 302 269 249 105 206 269 177 122
107 103 62 63 75 100 113 117 107 90 89 91 91 87 88 96 99 101 96 91 86 84 82 67 22 4 349 350 351 347 347 331 327 320 305 268 225 185 195 239 291 68 123
108 122 101 75 75 83 88 84 89 99 91 89 91 94 91 87 81 72 65 49 35 25 3 357 345 340 329 335 341 337 338 328 319 310 295 274 166 166 160 233 284 35 141
99 99 95 84 98 93 87 83 85 93 96 82 77 82 79 75 77 72 66 57 53 44 39 30 20 6 358 344 339 332 325 319 316 311 280 250 300 143 153 210 236 250 209
103 99 88 86 87 86 79 80 78 77 79 90 86 81 80 78 75 71 68 64 60 53 47 39 33 23 11 1 355 345 333 322 312 293 275 270 272 122 148 187 230 224 214
104 98 88 87 90 88 89 87 82 78 73 82 83 81 77 72 68 65 64 60 54 47 40 34 24 15 12 7 6 6 348 329 309 278 271 230 232 118 146 197 281 287 225
93 87 89 85 93 99 97 96 93 92 90 90 90 86 82 79 77 70 64 56 49 43 33 26 15 4 359 352 348 351 344 329 293 291 292 291 254 145 149 247 273 278 256
97 89 88 89 90 91 100 95 94 94 92 86 88 89 85 79 74 66 60 51 41 35 26 20 6 356 343 336 332 331 327 321 289 279 272 275 125 145 156 225 270 275 266
105 109 105 89 91 85 82 88 90 90 95 91 91 89 85 81 73 70 60 48 40 26 18 8 358 347 334 324 313 316 314 306 287 274 280 283 75 82 163 210 255 269 271
111 113 119 111 116 100 97 92 90 92 91 89 80 76 112 114 111 71 42 38 29 20 11 357 344 339 321 300 282 282 292 292 265 263 238 268 354 345 294 275 271 262 262
118 116 121 126 116 130 121 123 121 109 102 115 113 56 236 48 12 58 65 28 23 8 352 348 339 323 300 277 248 246 266 269 274 291 293 99 97 348 311 302 279 265 254
134 131 135 169 164 162 137 146 120 102 66 55 43 33 20 18 30 342 92 158 75 8 304 337 316 292 292 336 319 238 310 326 312 291 279 66 45 347 313 309 300 308 265
138 135 143 156 163 173 123 145 108 87 82 84 50 22 45 15 15 14 9 15 2 13 5 352 348 359 346 335 334 321 322 306 297 297 313 76 20 329 309 304 303 301 300
145 139 149 148 130 92 145 91 97 74 75 56 59 14 23 32 33 19 20 11 11 4 1 355 352 343 338 328 325 317 314 305 302 310 308 359 19 335 313 305 298 295 292
142 146 140 133 126 123 109 94 77 74 59 53 44 42 14 30 26 26 25 23 20 8 2 355 357 345 337 333 328 317 311 307 300 296 299 311 315 300 301 297 297 296 292
139 137 134 120 117 108 95 92 96 71 97 69 53 41 39 39 26 45 34 28 21 14 360 356 353 340 334 335 327 329 317 308 303 304 301 304 307 276 274 280 290 298 296
145 135 127 122 117 108 113 110 93 94 93 84 85 56 43 32 39 23 37 25 16 8 1 359 351 346 338 338 334 331 319 317 312 314 312 303 306 296 253 267 272 292 299
145 143 139 129 132 124 114 111 100 102 97 89 77 65 46 37 20 33 30 23 0 8 8 358 356 350 342 344 338 327 318 319 323 306 317 347 340 332 319 306 284 293 291
140 137 136 133 128 119 112 107 103 106 87 78 70 58 48 41 24 21 29 23 350 8 13 2 355 353 341 344 333 320 335 317 323 11 349 8 346 9 0 352 350 338 320
146 147 139 135 130 124 125 119 110 103 90 76 67 59 40 42 25 7 38 21 352 16 11 5 353 358 353 350 323 331 299 16 31 354 335 26 345 344 357 352 345 348 45
151 152 143 141 145 164 158 142 134 114 107 97 84 56 53 39 24 25 18 17 357 25 11 9 355 358 7 1 336 331 341 117 32 347 3 19 359 351 351 351 23 10 17
162 151 151 150 157 160 145 93 94 101 79 84 83 74 50 44 32 34 12 19 17 10 19 15 10 3 9 22 360 311 350 168 20 34 3 30 25 26 21 22 24 19 17
166 162 156 147 146 127 116 130 119 122 142 138 109 87 57 50 44 31 34 26 19 17 17 16 13 20 3 24 27 1 340 360 333 17 360 37 38 37 26 16 20 19 16
163 152 142 134 122 120 149 125 160 131 125 75 91 66 74 45 42 31 34 26 29 29 22 18 25 18 11 20 14 11 10 320 345 321 341 360 30 36 32 22 12 17 12
156 154 137 133 109 110 92 91 132 91 105 107 95 99 88 83 51 45 33 36 33 31 33 27 28 30 29 26 22 7 4 16 49 313 318 340 342 32 44 31 22 9 7
162 150 145 146 136 131 124 123 111 123 124 130 119 121 94 81 76 43 52 46 46 37 32 37 30 46 36 42 26 26 16 19 357 350 329 327 330 357 72 49 32 16 12